Pellston, MI

12:57 AM EST on November 19, 2017 (GMT -0500)
Pellston Regional Airport Of Emmet County

Weather History for KPLN - May, 2014

Change the Weather History Date:

Saturday, May 17, 2014

  Actual Average Record
Temperature  
Mean Temperature 40 °F -  
Max Temperature 55 °F 66 °F 89 °F (1962)
Min Temperature 25 °F 40 °F 24 °F (1955)
Degree Days  
Heating Degree Days 26    
Moisture  
Dew Point 26 °F    
Average Humidity 65    
Maximum Humidity 96    
Minimum Humidity 29    
Precipitation  
Precipitation 0.00 in - - ()
Sea Level Pressure  
Sea Level Pressure 30.06 in    
Wind  
Wind Speed 3 mph (WSW)    
Max Wind Speed 14 mph    
Max Gust Speed 18 mph    
Visibility 10 miles    
Events      
Averages and records for this station are not official NWS values.
T = Trace of Precipitation, MM = Missing Value Source: NWS Daily Summary

Daily Weather History Graph

Daily Weather History Graph

Search for Another Location

Airport or City:

Trip Planner

Search our weather history database for the weather conditions in past years. The results will help you decide how hot, cold, wet, or windy it might be!

Date:

Astronomy

May. 17, 2014 Rise Set
Actual Time 6:06 AM EDT 9:05 PM EDT
Civil Twilight 5:31 AM EDT 9:40 PM EDT
Nautical Twilight 4:46 AM EDT 10:25 PM EDT
Astronomical Twilight 3:52 AM EDT 11:19 PM EDT
Moon No Moon Rise 8:48 AM EDT (5/17)
Length of Visible Light 16h 09m
Length of Day
14h 59m
Waning Gibbous, 89% of the Moon is Illuminated
May 17
Waning Gibbous
May 21
Last Quarter
May 28
New
Jun 5
First Quarter
Jun 13
Full

Hourly Weather History & Observations

Time (EDT) Temp. Windchill Dew Point Humidity Pressure Visibility Wind Dir Wind Speed Gust Speed Precip Events Conditions
12:54 AM 30.9 °F 27.5 °F 28.0 °F 89% 30.06 in 10.0 mi West 3.5 mph - N/A   Clear
1:54 AM 32.0 °F - 28.0 °F 85% 30.06 in 10.0 mi Calm Calm - N/A   Clear
2:54 AM 28.0 °F - 27.0 °F 96% 30.06 in 10.0 mi Calm Calm - N/A   Clear
3:54 AM 26.1 °F - 24.1 °F 92% 30.05 in 10.0 mi Calm Calm - N/A   Clear
4:54 AM 26.1 °F - 23.0 °F 88% 30.05 in 10.0 mi Calm Calm - N/A   Clear
5:36 AM 27.0 °F - 24.1 °F 89% 30.02 in 10.0 mi Calm Calm - N/A   Partly Cloudy
5:54 AM 25.0 °F - 21.9 °F 88% 30.05 in 10.0 mi Calm Calm - N/A   Scattered Clouds
6:09 AM 26.1 °F - 23.0 °F 88% 30.03 in 10.0 mi Calm Calm - N/A   Mostly Cloudy
6:39 AM 27.0 °F - 24.1 °F 89% 30.03 in 10.0 mi Calm Calm - N/A   Scattered Clouds
6:54 AM 28.0 °F - 25.0 °F 88% 30.06 in 10.0 mi Calm Calm - N/A   Clear
7:54 AM 34.0 °F - 30.9 °F 89% 30.06 in 10.0 mi Calm Calm - N/A   Clear
8:54 AM 37.9 °F - 32.0 °F 79% 30.07 in 10.0 mi Calm Calm - N/A   Clear
9:54 AM 43.0 °F 41.3 °F 30.0 °F 60% 30.07 in 10.0 mi Variable 3.5 mph - N/A   Clear
11:54 AM 48.0 °F - 30.0 °F 50% 30.06 in 10.0 mi Variable 4.6 mph - N/A   Mostly Cloudy
12:54 PM 50.0 °F - 28.9 °F 44% 30.05 in 10.0 mi SSW 10.4 mph 16.1 mph N/A   Scattered Clouds
1:54 PM 53.1 °F - 28.0 °F 38% 30.05 in 10.0 mi WSW 11.5 mph 17.3 mph N/A   Partly Cloudy
2:54 PM 54.0 °F - 26.1 °F 34% 30.04 in 10.0 mi West 13.8 mph 18.4 mph N/A   Clear
3:54 PM 54.0 °F - 25.0 °F 33% 30.04 in 10.0 mi North - - N/A   Clear
4:54 PM 53.1 °F - 23.0 °F 31% 30.05 in 10.0 mi WSW 10.4 mph - N/A   Mostly Cloudy
5:54 PM 53.1 °F - 21.9 °F 30% 30.06 in 10.0 mi WSW 11.5 mph - N/A   Mostly Cloudy
6:54 PM 53.1 °F - 21.0 °F 29% 30.06 in 10.0 mi WSW 5.8 mph - N/A   Clear
7:54 PM 52.0 °F - 21.0 °F 30% 30.06 in 10.0 mi West 3.5 mph - N/A   Clear
8:54 PM 51.1 °F - 23.0 °F 33% 30.07 in 10.0 mi Calm Calm - N/A   Clear
9:54 PM 42.1 °F - 30.9 °F 65% 30.09 in 10.0 mi Calm Calm - N/A   Clear
10:54 PM 37.0 °F - 30.0 °F 76% 30.09 in 10.0 mi Calm Calm - N/A   Overcast
11:54 PM 35.1 °F - 30.0 °F 82% 30.09 in 10.0 mi Calm Calm - N/A   Clear